Home > Time Zones > World Clock > Weather > Iran > Gorgan > Past weeks

Flag for Iran Weather past 2 weeks in Gorgan, Iran

Now
77 °F

Passing clouds.


Feels Like: 78 °F
Forecast: 70 / 96 °F
Wind: 9 mph from Southwest

Location: Gorgan Airport

Current Time: Sep 3, 2014 at 6:59:27 AM

Latest Report: Sep 3, 2014 at 6:30 AM


Visibility: N/A

Pressure: 29.89 "Hg

Humidity: 83%

Dew point: 72 °F

Location of GorganLocation

Historic Weather in Gorgan — Graph

°F

Gorgan temperature yesterday

Maximum temperature yesterday: 95 °F (at 4:30 PM)
Minimum temperature yesterday: 79 °F (at 12:30 AM)
Average temperature yesterday: 85 °F

Past Weeks' High & Low Weather Summary

 TemperatureHumidityPressure
High106 °F (Aug 19, 3:00 PM)89% (Aug 22, 12:30 AM)30.09 "Hg (Aug 22, 12:30 AM)
Low70 °F (Aug 29, 6:30 AM)27% (Aug 28, 4:30 PM)29.71 "Hg (Aug 19, 5:30 AM)
Average86 °F64%29.86 "Hg
* Reported Aug 19 5:30 AM — Sep 3 5:30 AM, Gorgan, Weather by CustomWeather, © 2014

Note: Actual official high and low records may vary slightly from our data, if they occured in-between our weather recording intervals... More about our weather records

Advertising

Gorgan weather history for previous 24 hours

 ConditionsComfort  
Time TempWeatherWind HumidityBarometerVisibility
5:30 AM
Sep 3
77 °FPassing clouds.12 mph83%29.86 "HgN/A
4:30 AM75 °FPassing clouds.No wind89%29.83 "HgN/A
3:30 AM75 °FPassing clouds.No wind89%29.83 "HgN/A
2:30 AM77 °FPassing clouds.No wind83%29.83 "HgN/A
1:30 AM77 °FPassing clouds.No wind83%29.83 "HgN/A
12:30 AM77 °FPassing clouds.No wind83%29.86 "HgN/A
11:30 PM
Sep 2
79 °FPassing clouds.No wind79%29.86 "HgN/A
10:30 PM81 °FPassing clouds.7 mph79%29.86 "HgN/A
9:30 PM81 °FPassing clouds.7 mph79%29.86 "HgN/A
9:00 PM84 °FPassing clouds.9 mph70%29.86 "HgN/A
8:30 PM84 °FPassing clouds.9 mph70%29.86 "HgN/A
8:00 PM84 °FPassing clouds.9 mph70%29.83 "HgN/A
7:30 PM86 °FScattered clouds.7 mph70%29.83 "HgN/A
6:30 PM90 °FPassing clouds.12 mph59%29.83 "HgN/A
5:30 PM95 °FScattered clouds.12 mph50%29.83 "HgN/A
4:30 PM95 °FScattered clouds.12 mph47%29.83 "HgN/A
3:30 PM91 °FScattered clouds.9 mph49%29.83 "HgN/A
2:30 PM93 °FScattered clouds.12 mph47%29.86 "HgN/A
1:30 PM93 °FScattered clouds.5 mph47%29.86 "HgN/A
12:30 PM91 °FScattered clouds.7 mph52%29.89 "HgN/A
11:30 AM90 °FScattered clouds.7 mph55%29.92 "HgN/A
10:30 AM88 °FScattered clouds.12 mph62%29.92 "HgN/A
9:30 AM86 °FPassing clouds.14 mph66%29.92 "HgN/A
8:30 AM84 °FScattered clouds.12 mph66%29.92 "HgN/A
7:30 AM81 °FPassing clouds.No wind84%29.92 "HgN/A
6:30 AM79 °FPassing clouds.No wind84%29.89 "HgN/A
Weather by CustomWeather, © 2014

See weather overviewHow to use our weather pages